Regional Weather Roundup
Issued by NWS Bismarck, ND

Home | Current Version | Previous Version | Text Only | Print | Product List | Glossary On
Versions: 1 2 3 4 5 6 7 8 9 10 11 12 13 14 15 16 17 18 19 20 21 22 23 24 25 26 27 28 29 30 31 32 33 34 35 36 37 38 39 40 41 42 43 44 45 46 47 48 49 50
000
ASUS43 KBIS 180610
RWRBIS

NWR BROADCAST TEXT
NATIONAL WEATHER SERVICE BISMARCK ND
100 AM CDT THU SEP 18 2014

NOTE: "FAIR" INDICATES FEW OR NO CLOUDS BELOW 12,000 FEET WITH NO
SIGNIFICANT WEATHER AND/OR OBSTRUCTIONS TO VISIBILITY.


CITY           SKY/WX    TMP DP  RH WIND       PRES   REMARKS
WILLISTON      CLEAR     61  47  59 SE12      29.89F
MINOT          CLEAR     49  46  90 E10       29.97F
MINOT AFB      CLEAR     47  46  99 SE10      29.97S
BISMARCK       CLEAR     50  47  89 NE9       30.00R
DICKINSON      PTCLDY    55  47  74 SE15      29.92F
GARRISON         N/A     53  51  93 SE7       29.97S
HETTINGER ARPT CLEAR     53  47  79 SE9       29.96F
JAMESTOWN      CLEAR     48  45  89 E6        30.01R
BEACH            N/A     55  54  94 SE15      29.90F
CARRINGTON     FAIR      45  45 100 SE7       30.03S
CROSBY         FAIR      46  46 100 E8        29.91F
HARVEY         FAIR      45  45 100 SE7       30.01S
HAZEN          FAIR      46  45  93 NE5       29.97S
LINTON         FAIR      50  46  87 E7        29.99S
MANDAN         FAIR      52  46  82 E9        29.99S
OAKES            N/A     48  48 100 NE8       29.99F
RUGBY          FAIR      46  45  93 E9        30.01S
STANLEY        FAIR      50  50 100 SE7       29.94F
TIOGA          FAIR      48  48 100 E8        29.95F
WATFORD CITY   FAIR      52  46  82 CALM      29.89F
$$

CITY           SKY/WX    TMP DP  RH WIND       PRES   REMARKS
GRAND FORKS    CLEAR     46  42  86 NE5       30.04S
GRAND FORKS AF CLEAR     39  39  99 N3        30.05F
DEVILS LAKE    CLEAR     46  39  76 SE8       30.01F
FARGO          CLEAR     48  45  89 NE5       30.01S
CANDO          FAIR      41  39  93 E7        30.03F
CAVALIER       FAIR      39  37  93 CALM      30.07F
GRAFTON        FAIR      39  37  93 N3        30.06S
GWINNER        CLEAR     50  50 100 N3        30.01S
LANGDON        FAIR      39  37  93 E10       30.04F
ROLLA          FAIR      39  39 100 SE6       30.04F
WALHALLA       FAIR      37  37 100 CALM      30.08S
$$

CITY           SKY/WX    TMP DP  RH WIND       PRES   REMARKS
ABERDEEN       CLEAR     48  47  96 CALM      29.99S
MOBRIDGE       CLEAR     53  46  77 E9        29.96S
BUFFALO          N/A     57  49  74 SE13      29.88F
RAPID CITY     PTCLDY    59  52  77 S6        29.98F
GLASGOW        CLEAR     59  46  62 SE17      29.78S
SIDNEY         CLEAR     57  48  72 S3        29.88F
WOLF POINT     CLEAR     59  46  62 NE10      29.81F
GLENDIVE       PTCLDY    61  50  67 SE7       29.87F
MILES CITY     CLOUDY    69  51  52 S13       29.83F
BAKER          PTCLDY    58  51  78 SE17      29.91F
$$

CITY           SKY/WX    TMP DP  RH WIND       PRES   REMARKS
BILLINGS       MOCLDY    64  50  60 SW6       29.87F
GREAT FALLS    CLOUDY    69  43  38 S12       29.77S
REGINA         CLEAR     50  46  87 SE18G30   29.86F
ESTEVAN        PTCLDY    46  45  93 E12       29.93F
$$



USA.gov is the U.S. government's official web portal to all federal, state and local government web resources and services.